FGRST (GLAST)

Last updated on Fri Jul 10 2026 00:02:57 GMT+0000 (Coordinated Universal Time)

1 33053U 08029A 26190.03213974 .00002452 00000+0 84708-4 0 9993 2 33053 25.5827 52.7873 0007811 222.8473 137.1457 15.24053571999178
UTC large
Height (km)
Speed (km/s)
/
Latitude / Longitude
Inclination (degrees)
Orbital Period (minutes)
Azimuth
Elevation
Range (km)
Doppler Factor

Next 0 passes for location: London (51.5072 / 0.1276)

No passes found over London.
FGRST (GLAST)